Location: Bailleul
(50.3375°N, 2.8513°E)
Time: 20:49:33
(UTC+00:00)

Cosmos 2082 - Pass Details

Date: 19 April 2021
Orbit: 834 x 855 km, 71.0° (Epoch: 18 May)

Event Time Altitude Azimuth Distance (km) Brightness Sun altitude
Exits shadow 21:24:24 42° 142° (SE) 1,171 3.9 -20.7°
Maximum altitude 21:25:26 47° 110° (ESE) 1,092 3.9 -20.8°
Drops below altitude 10° 21:30:48 10° 38° (NE) 2,457 6.3 -21.3°
Sets 21:33:19 0° 33° (NNE) 3,398 7.1 -21.6°
